sat.trackr.live / text

‹ back to catalog

STARLINK-36873

NORAD 67948 · 2026-037S

PAYLOAD ACTIVE UNKNOWN

§ Identity

Operator
Country
US
Launch date
2026-02-24
Launch site
AFETR
Launch vehicle
Mass (kg)
RCS (m²)

Purposes: comms

External: N2YO · Heavens-Above · Gunter

§ Orbital elements

Epoch: 2026-05-24T23:38:51.875232Z

Period
94.27 min
Inclination
43.0025°
Eccentricity
0.0001837
Mean motion
15.27586121 rev/d
Perigee alt
481.8 km
Apogee alt
484.3 km
Semi-major
6,861.2 km
B*
3.3085e-4
RAAN
119.4570°
Arg perigee
271.3891°
Mean anomaly
88.6750°
Rev number
1,501

§ Raw data

STARLINK-368731 67948U 26037S   26144.98532263  .00008855  00000+0  33085-3 0  99942 67948  43.0025 119.4570 0001837 271.3891  88.6750 15.27586121 15016

JSON: /api/v1/satellites/67948 · /tle

For live sub-satellite position, see the globe view (requires WebGL).

§ Visibility from observer

Set your observer location to see the next 7 days of passes ≥ 10°. The values pass through the URL so the page stays shareable.

No JS? Fill the form by hand. The geolocation button needs JavaScript.